| time (UTC) | temp F | wind direction | speed MPH | gust MPH | rain 1hr in | rain 24hr in | rain mn in | humidity % | barometer mb |
| 20260503021831 | 57 | 309 | 4.0 | 12.0 | 0.00 | 0.00 | 0.00 | 44 | 1008.5 |
| 20260503021328 | 57 | 346 | 4.0 | 12.0 | 0.00 | 0.00 | 0.00 | 43 | 1008.5 |
| 20260503021110 | 57 | 5 | 4.0 | 11.0 | 0.00 | 0.00 | 0.00 | 44 | 1008.6 |
| 20260503020329 | 57 | 324 | 4.0 | 10.0 | 0.00 | 0.00 | 0.00 | 44 | 1008.7 |
| 20260503015829 | 57 | 40 | 4.0 | 10.0 | 0.00 | 0.00 | 0.00 | 44 | 1008.7 |
| 20260503015329 | 57 | 11 | 4.0 | 13.0 | 0.00 | 0.00 | 0.00 | 43 | 1008.7 |
| 20260503014830 | 57 | 38 | 5.0 | 13.0 | 0.00 | 0.00 | 0.00 | 42 | 1008.6 |
| 20260503014324 | 57 | 350 | 5.0 | 11.0 | 0.00 | 0.00 | 0.00 | 44 | 1008.7 |
| 20260503014055 | 57 | 47 | 4.0 | 13.0 | 0.00 | 0.00 | 0.00 | 43 | 1008.7 |
| 20260503013304 | 57 | 297 | 4.0 | 14.0 | 0.00 | 0.00 | 0.00 | 43 | 1008.7 |
| 20260503012806 | 58 | 20 | 4.0 | 14.0 | 0.00 | 0.00 | 0.00 | 42 | 1008.7 |
| 20260503012306 | 58 | 17 | 5.0 | 16.0 | 0.00 | 0.00 | 0.00 | 43 | 1008.6 |
| 20260503011804 | 58 | 0 | 5.0 | 16.0 | 0.00 | 0.00 | 0.00 | 41 | 1008.6 |
| 20260503011306 | 58 | 5 | 4.0 | 15.0 | 0.00 | 0.00 | 0.00 | 43 | 1008.6 |
| 20260503010805 | 58 | 9 | 4.0 | 13.0 | 0.00 | 0.00 | 0.00 | 45 | 1008.5 |
| 20260503010305 | 58 | 47 | 4.0 | 12.0 | 0.00 | 0.00 | 0.00 | 45 | 1008.5 |
| 20260503005804 | 58 | 330 | 3.0 | 8.0 | 0.00 | 0.00 | 0.00 | 45 | 1008.4 |
| 20260503005305 | 58 | 311 | 4.0 | 10.0 | 0.00 | 0.00 | 0.00 | 45 | 1008.4 |
| 20260503004805 | 58 | 344 | 3.0 | 10.0 | 0.00 | 0.00 | 0.00 | 43 | 1008.2 |
| 20260503004307 | 58 | 0 | 3.0 | 11.0 | 0.00 | 0.00 | 0.00 | 44 | 1008.1 |
| 20260503003805 | 58 | 309 | 3.0 | 11.0 | 0.00 | 0.00 | 0.00 | 46 | 1008.1 |
| 20260503003304 | 58 | 347 | 3.0 | 8.0 | 0.00 | 0.00 | 0.00 | 45 | 1007.9 |
| 20260503002803 | 58 | 327 | 3.0 | 8.0 | 0.00 | 0.00 | 0.00 | 46 | 1007.9 |
| 20260503002301 | 59 | 341 | 3.0 | 9.0 | 0.00 | 0.00 | 0.00 | 45 | 1007.8 |
| 20260503001800 | 59 | 0 | 3.0 | 9.0 | 0.00 | 0.00 | 0.00 | 45 | 1007.8 |
| 20260503001545 | 59 | 330 | 3.0 | 9.0 | 0.00 | 0.00 | 0.00 | 43 | 1007.7 |
| 20260503000801 | 59 | 308 | 4.0 | 9.0 | 0.00 | 0.00 | 0.00 | 41 | 1007.9 |
| 20260503000301 | 59 | 329 | 2.0 | 7.0 | 0.00 | 0.00 | 0.00 | 44 | 1007.8 |
| 20260503000046 | 59 | 313 | 1.0 | 6.0 | 0.00 | 0.00 | 0.00 | 46 | 1007.8 |
| 20260502235300 | 59 | 329 | 1.0 | 4.0 | 0.00 | 0.00 | 0.00 | 44 | 1007.7 |
| 20260502234802 | 60 | 351 | 2.0 | 10.0 | 0.00 | 0.00 | 0.00 | 43 | 1008.0 |
| 20260502234302 | 60 | 0 | 3.0 | 10.0 | 0.00 | 0.00 | 0.00 | 43 | 1008.1 |
| 20260502233800 | 60 | 337 | 2.0 | 7.0 | 0.00 | 0.00 | 0.00 | 42 | 1008.0 |
| 20260502233302 | 60 | 0 | 2.0 | 6.0 | 0.00 | 0.00 | 0.00 | 44 | 1007.9 |
| 20260502232801 | 60 | 350 | 2.0 | 6.0 | 0.00 | 0.00 | 0.00 | 43 | 1007.9 |
| 20260502232304 | 60 | 327 | 2.0 | 7.0 | 0.00 | 0.00 | 0.00 | 40 | 1007.8 |
| 20260502231801 | 60 | 331 | 3.0 | 7.0 | 0.00 | 0.00 | 0.00 | 39 | 1007.9 |
| 20260502231552 | 60 | 289 | 3.0 | 7.0 | 0.00 | 0.00 | 0.00 | 38 | 1007.9 |
| 20260502230803 | 60 | 308 | 3.0 | 7.0 | 0.00 | 0.00 | 0.00 | 39 | 1007.9 |
| 20260502230301 | 60 | 316 | 3.0 | 7.0 | 0.00 | 0.00 | 0.00 | 39 | 1007.9 |
| 20260502225802 | 61 | 323 | 3.0 | 7.0 | 0.00 | 0.00 | 0.00 | 38 | 1007.9 |
| 20260502225304 | 61 | 337 | 3.0 | 9.0 | 0.00 | 0.00 | 0.00 | 40 | 1007.9 |
| 20260502224803 | 61 | 355 | 3.0 | 9.0 | 0.00 | 0.00 | 0.00 | 42 | 1007.8 |
| 20260502224544 | 61 | 344 | 3.0 | 9.0 | 0.00 | 0.00 | 0.00 | 39 | 1007.8 |
| 20260502223802 | 61 | 306 | 4.0 | 9.0 | 0.00 | 0.00 | 0.00 | 39 | 1007.7 |
| 20260502223302 | 61 | 296 | 3.0 | 9.0 | 0.00 | 0.00 | 0.00 | 39 | 1007.6 |
| 20260502222802 | 61 | 290 | 2.0 | 7.0 | 0.00 | 0.00 | 0.00 | 39 | 1007.5 |
| 20260502222305 | 61 | 322 | 2.0 | 6.0 | 0.00 | 0.00 | 0.00 | 39 | 1007.4 |
| 20260502221802 | 61 | 328 | 2.0 | 6.0 | 0.00 | 0.00 | 0.00 | 39 | 1007.6 |
| 20260502221303 | 61 | 342 | 3.0 | 9.0 | 0.00 | 0.00 | 0.00 | 38 | 1007.7 |
| 20260502221039 | 61 | 292 | 3.0 | 9.0 | 0.00 | 0.00 | 0.00 | 38 | 1007.7 |
| 20260502220301 | 61 | 315 | 2.0 | 7.0 | 0.00 | 0.00 | 0.00 | 39 | 1007.8 |
| 20260502215803 | 61 | 337 | 3.0 | 10.0 | 0.00 | 0.00 | 0.00 | 39 | 1007.8 |
| 20260502215304 | 61 | 325 | 3.0 | 10.0 | 0.00 | 0.00 | 0.00 | 38 | 1007.9 |
| 20260502214801 | 62 | 346 | 2.0 | 10.0 | 0.00 | 0.00 | 0.00 | 43 | 1007.8 |
| 20260502214300 | 62 | 348 | 3.0 | 11.0 | 0.00 | 0.00 | 0.00 | 40 | 1007.7 |
| 20260502213801 | 62 | 340 | 4.0 | 11.0 | 0.00 | 0.00 | 0.00 | 38 | 1007.8 |
| 20260502213301 | 62 | 315 | 6.0 | 11.0 | 0.00 | 0.00 | 0.00 | 38 | 1007.7 |
| 20260502212804 | 62 | 331 | 5.0 | 11.0 | 0.00 | 0.00 | 0.00 | 37 | 1007.7 |
| 20260502212305 | 63 | 301 | 3.0 | 11.0 | 0.00 | 0.00 | 0.00 | 38 | 1007.5 |
| 20260502212046 | 63 | 286 | 4.0 | 10.0 | 0.00 | 0.00 | 0.00 | 37 | 1007.5 |
| 20260502211301 | 62 | 261 | 5.0 | 11.0 | 0.00 | 0.00 | 0.00 | 36 | 1007.4 |
| 20260502210800 | 62 | 324 | 4.0 | 11.0 | 0.00 | 0.00 | 0.00 | 37 | 1007.3 |
| 20260502210300 | 62 | 283 | 3.0 | 9.0 | 0.00 | 0.00 | 0.00 | 38 | 1007.3 |
| 20260502205801 | 62 | 355 | 3.0 | 9.0 | 0.00 | 0.00 | 0.00 | 38 | 1007.2 |
| 20260502205542 | 62 | 355 | 3.0 | 8.0 | 0.00 | 0.00 | 0.00 | 40 | 1007.3 |
| 20260502205044 | 62 | 231 | 2.0 | 8.0 | 0.00 | 0.00 | 0.00 | 40 | 1007.3 |
| 20260502204301 | 62 | 88 | 2.0 | 8.0 | 0.00 | 0.00 | 0.00 | 44 | 1007.3 |
| 20260502204041 | 62 | 297 | 3.0 | 8.0 | 0.00 | 0.00 | 0.00 | 44 | 1007.3 |
| 20260502203301 | 62 | 78 | 2.0 | 5.0 | 0.00 | 0.00 | 0.00 | 50 | 1007.3 |
| 20260502202804 | 61 | 66 | 2.0 | 5.0 | 0.00 | 0.00 | 0.00 | 52 | 1007.4 |
| 20260502202304 | 62 | 68 | 3.0 | 7.0 | 0.00 | 0.00 | 0.00 | 50 | 1007.5 |
| 20260502201803 | 62 | 326 | 3.0 | 7.0 | 0.00 | 0.00 | 0.00 | 40 | 1007.5 |
| 20260502201301 | 62 | 343 | 2.0 | 6.0 | 0.00 | 0.00 | 0.00 | 41 | 1007.6 |
| 20260502200800 | 62 | 0 | 2.0 | 6.0 | 0.00 | 0.00 | 0.00 | 45 | 1007.6 |
| 20260502200301 | 61 | 5 | 2.0 | 7.0 | 0.00 | 0.00 | 0.00 | 44 | 1007.7 |
| 20260502195801 | 62 | 20 | 3.0 | 7.0 | 0.00 | 0.00 | 0.00 | 43 | 1007.7 |
| 20260502195301 | 62 | 345 | 2.0 | 7.0 | 0.00 | 0.00 | 0.00 | 46 | 1007.8 |
| 20260502194801 | 61 | 329 | 2.0 | 7.0 | 0.00 | 0.00 | 0.00 | 47 | 1007.8 |
| 20260502194301 | 61 | 292 | 3.0 | 7.0 | 0.00 | 0.00 | 0.00 | 43 | 1008.0 |
| 20260502193800 | 61 | 283 | 3.0 | 7.0 | 0.00 | 0.00 | 0.00 | 47 | 1008.2 |
| 20260502193301 | 60 | 336 | 3.0 | 7.0 | 0.00 | 0.00 | 0.00 | 46 | 1008.3 |
| 20260502193053 | 60 | 323 | 2.0 | 7.0 | 0.00 | 0.00 | 0.00 | 47 | 1008.1 |
| 20260502192305 | 60 | 350 | 2.0 | 5.0 | 0.00 | 0.00 | 0.00 | 45 | 1008.2 |
| 20260502191801 | 60 | 313 | 2.0 | 5.0 | 0.00 | 0.00 | 0.00 | 46 | 1008.5 |
| 20260502191301 | 60 | 299 | 2.0 | 6.0 | 0.00 | 0.00 | 0.00 | 47 | 1008.6 |
| 20260502190801 | 60 | 286 | 3.0 | 6.0 | 0.00 | 0.00 | 0.00 | 47 | 1008.7 |
| 20260502190302 | 60 | 355 | 2.0 | 6.0 | 0.00 | 0.00 | 0.00 | 49 | 1008.7 |
| 20260502185802 | 60 | 283 | 2.0 | 6.0 | 0.00 | 0.00 | 0.00 | 49 | 1008.7 |
| 20260502185545 | 60 | 355 | 2.0 | 5.0 | 0.00 | 0.00 | 0.00 | 48 | 1008.7 |
| 20260502184802 | 60 | 285 | 2.0 | 5.0 | 0.00 | 0.00 | 0.00 | 51 | 1008.6 |
| 20260502184301 | 60 | 344 | 2.0 | 6.0 | 0.00 | 0.00 | 0.00 | 51 | 1008.7 |
| 20260502183801 | 60 | 246 | 3.0 | 8.0 | 0.00 | 0.00 | 0.00 | 49 | 1008.7 |
| 20260502183333 | 60 | 345 | 3.0 | 9.0 | 0.00 | 0.00 | 0.00 | 51 | 1008.9 |
| 20260502183323 | 60 | 344 | 3.0 | 9.0 | 0.00 | 0.00 | 0.00 | 51 | 1008.8 |
| 20260502182548 | 60 | 355 | 2.0 | 6.0 | 0.00 | 0.00 | 0.00 | 53 | 1008.8 |
| 20260502182047 | 59 | 290 | 2.0 | 6.0 | 0.00 | 0.00 | 0.00 | 54 | 1009.0 |
| 20260502181302 | 59 | 355 | 3.0 | 10.0 | 0.00 | 0.00 | 0.00 | 54 | 1009.1 |
| 20260502180801 | 59 | 342 | 3.0 | 10.0 | 0.00 | 0.00 | 0.00 | 52 | 1009.0 |
| 20260502180301 | 60 | 324 | 3.0 | 6.0 | 0.00 | 0.00 | 0.00 | 55 | 1009.0 |
| 20260502170303 | 58 | 347 | 3.0 | 9.0 | 0.00 | 0.00 | 0.00 | 61 | 1009.4 |
| 20260502163803 | 57 | 327 | 4.0 | 10.0 | 0.00 | 0.00 | 0.00 | 64 | 1009.9 |
| 20260502163303 | 57 | 341 | 4.0 | 10.0 | 0.00 | 0.00 | 0.00 | 65 | 1009.9 |
| 20260502162803 | 57 | 324 | 3.0 | 9.0 | 0.00 | 0.00 | 0.00 | 65 | 1010.0 |
| 20260502162304 | 57 | 19 | 3.0 | 9.0 | 0.00 | 0.00 | 0.00 | 66 | 1010.0 |
| 20260502161802 | 57 | 334 | 3.0 | 9.0 | 0.00 | 0.00 | 0.00 | 65 | 1010.0 |
| 20260502161302 | 57 | 350 | 4.0 | 10.0 | 0.00 | 0.00 | 0.00 | 66 | 1010.0 |
| 20260502160801 | 57 | 312 | 3.0 | 10.0 | 0.00 | 0.00 | 0.00 | 65 | 1009.9 |
| 20260502160547 | 57 | 331 | 4.0 | 10.0 | 0.00 | 0.00 | 0.00 | 66 | 1009.8 |
| 20260502151803 | 56 | 305 | 3.0 | 9.0 | 0.00 | 0.00 | 0.00 | 70 | 1009.8 |
| 20260502151307 | 56 | 294 | 3.0 | 9.0 | 0.00 | 0.00 | 0.00 | 68 | 1009.8 |
| 20260502150807 | 56 | 277 | 3.0 | 7.0 | 0.00 | 0.00 | 0.00 | 69 | 1009.7 |
| 20260502150303 | 56 | 15 | 2.0 | 5.0 | 0.00 | 0.00 | 0.00 | 71 | 1009.9 |
| 20260502130303 | 55 | 288 | 4.0 | 12.0 | 0.00 | 0.00 | 0.00 | 73 | 1010.3 |
| 20260502123301 | 53 | 230 | 2.0 | 5.0 | 0.00 | 0.00 | 0.00 | 79 | 1010.1 |
| 20260502122802 | 53 | 211 | 2.0 | 5.0 | 0.00 | 0.00 | 0.00 | 79 | 1010.1 |
| 20260502122305 | 53 | 231 | 2.0 | 5.0 | 0.00 | 0.00 | 0.00 | 79 | 1010.1 |
| 20260502121801 | 53 | 255 | 2.0 | 4.0 | 0.00 | 0.00 | 0.00 | 79 | 1010.1 |
| 20260502121303 | 53 | 242 | 2.0 | 4.0 | 0.00 | 0.00 | 0.00 | 80 | 1010.2 |
| 20260502120803 | 53 | 231 | 2.0 | 5.0 | 0.00 | 0.00 | 0.00 | 81 | 1010.1 |
| 20260502120302 | 53 | 223 | 2.0 | 5.0 | 0.00 | 0.00 | 0.00 | 81 | 1010.1 |
| 20260502115802 | 53 | 240 | 3.0 | 6.0 | 0.00 | 0.00 | 0.00 | 81 | 1010.0 |
| 20260502115403 | 53 | 237 | 2.0 | 6.0 | 0.00 | 0.00 | 0.00 | 81 | 1010.0 |
| 20260502115356 | 52 | 200 | 3.0 | 6.0 | 0.00 | 0.00 | 0.00 | 82 | 1010.0 |
| 20260502115344 | 53 | 261 | 3.0 | 6.0 | 0.00 | 0.00 | 0.00 | 81 | 1010.0 |
| 20260502113803 | 52 | 219 | 2.0 | 6.0 | 0.00 | 0.00 | 0.00 | 82 | 1010.0 |
| 20260502113255 | 52 | 229 | 2.0 | 5.0 | 0.00 | 0.00 | 0.00 | 82 | 1010.0 |
| 20260502112747 | 52 | 237 | 2.0 | 5.0 | 0.00 | 0.00 | 0.00 | 82 | 1010.0 |
| 20260502112516 | 52 | 208 | 2.0 | 5.0 | 0.00 | 0.00 | 0.00 | 82 | 1010.0 |
| 20260502112016 | 52 | 224 | 1.0 | 4.0 | 0.00 | 0.00 | 0.00 | 82 | 1010.1 |
| 20260502111231 | 52 | 227 | 1.0 | 6.0 | 0.00 | 0.00 | 0.00 | 83 | 1009.9 |
| 20260502110729 | 52 | 248 | 1.0 | 6.0 | 0.00 | 0.00 | 0.00 | 83 | 1009.8 |
| 20260502110230 | 52 | 287 | 1.0 | 4.0 | 0.00 | 0.00 | 0.00 | 83 | 1009.7 |
| 20260502105728 | 52 | 255 | 0.0 | 2.0 | 0.00 | 0.00 | 0.00 | 83 | 1009.5 |
| 20260502105229 | 52 | 254 | 0.0 | 2.0 | 0.00 | 0.00 | 0.00 | 83 | 1009.5 |
| 20260502104730 | 52 | 254 | 0.0 | 2.0 | 0.00 | 0.00 | 0.00 | 83 | 1009.4 |
| 20260502104230 | 52 | 234 | 0.0 | 2.0 | 0.00 | 0.00 | 0.00 | 83 | 1009.4 |
| 20260502103728 | 52 | 231 | 0.0 | 2.0 | 0.00 | 0.00 | 0.00 | 83 | 1009.3 |
| 20260502103230 | 52 | 217 | 0.0 | 2.0 | 0.00 | 0.00 | 0.00 | 82 | 1009.1 |
| 20260502102729 | 52 | 256 | 0.0 | 1.0 | 0.00 | 0.00 | 0.00 | 82 | 1009.1 |
| 20260502102506 | 52 | 256 | 0.0 | 1.0 | 0.00 | 0.00 | 0.00 | 82 | 1009.0 |
| 20260502101729 | 52 | 256 | 0.0 | 0.0 | 0.00 | 0.00 | 0.00 | 82 | 1009.0 |
| 20260502101230 | 52 | 256 | 0.0 | 1.0 | 0.00 | 0.00 | 0.00 | 82 | 1009.0 |
| 20260502100730 | 52 | 256 | 0.0 | 1.0 | 0.00 | 0.00 | 0.00 | 82 | 1009.0 |
| 20260502100229 | 52 | 256 | 0.0 | 3.0 | 0.00 | 0.00 | 0.00 | 82 | 1009.1 |
| 20260502090729 | 52 | 289 | 3.0 | 8.0 | 0.00 | 0.00 | 0.00 | 82 | 1009.4 |
| 20260502090229 | 52 | 220 | 3.0 | 7.0 | 0.00 | 0.00 | 0.00 | 82 | 1009.3 |
| 20260502071231 | 52 | 183 | 3.0 | 6.0 | 0.00 | 0.00 | 0.00 | 77 | 1009.4 |
| 20260502071011 | 52 | 229 | 3.0 | 6.0 | 0.00 | 0.00 | 0.00 | 77 | 1009.4 |
| 20260502070229 | 52 | 227 | 2.0 | 6.0 | 0.00 | 0.00 | 0.00 | 76 | 1009.4 |
| 20260502065728 | 52 | 232 | 2.0 | 7.0 | 0.00 | 0.00 | 0.00 | 76 | 1009.3 |
| 20260502065229 | 53 | 236 | 3.0 | 7.0 | 0.00 | 0.00 | 0.00 | 76 | 1009.3 |
| 20260502064729 | 53 | 184 | 2.0 | 7.0 | 0.00 | 0.00 | 0.00 | 76 | 1009.6 |
| 20260502064229 | 53 | 218 | 3.0 | 7.0 | 0.00 | 0.00 | 0.00 | 75 | 1009.5 |
| 20260502063730 | 53 | 235 | 4.0 | 11.0 | 0.00 | 0.00 | 0.00 | 75 | 1009.5 |
| 20260502063304 | 53 | 222 | 5.0 | 9.0 | 0.00 | 0.00 | 0.00 | 75 | 1009.3 |
| 20260502063254 | 53 | 240 | 5.0 | 11.0 | 0.00 | 0.00 | 0.00 | 75 | 1009.4 |
| 20260502062514 | 53 | 232 | 4.0 | 8.0 | 0.00 | 0.00 | 0.00 | 75 | 1009.4 |
| 20260502061949 | 53 | 227 | 4.0 | 11.0 | 0.00 | 0.00 | 0.00 | 74 | 1009.7 |
| 20260502061736 | 53 | 227 | 4.0 | 11.0 | 0.00 | 0.00 | 0.00 | 74 | 1009.8 |
| 20260502060730 | 53 | 217 | 4.0 | 10.0 | 0.00 | 0.00 | 0.00 | 74 | 1009.8 |
| 20260502060224 | 53 | 207 | 4.0 | 9.0 | 0.00 | 0.00 | 0.00 | 74 | 1009.8 |
| 20260502055714 | 53 | 218 | 4.0 | 10.0 | 0.00 | 0.00 | 0.00 | 74 | 1009.8 |
| 20260502055212 | 53 | 194 | 4.0 | 10.0 | 0.00 | 0.00 | 0.00 | 73 | 1009.9 |
| 20260502054744 | 53 | 201 | 5.0 | 10.0 | 0.00 | 0.00 | 0.00 | 72 | 1009.9 |
| 20260502054734 | 53 | 217 | 5.0 | 10.0 | 0.00 | 0.00 | 0.00 | 73 | 1009.9 |
| 20260502053711 | 53 | 205 | 5.0 | 10.0 | 0.00 | 0.00 | 0.00 | 72 | 1009.7 |
| 20260502053211 | 53 | 213 | 4.0 | 10.0 | 0.00 | 0.00 | 0.00 | 72 | 1009.6 |
| 20260502052710 | 53 | 194 | 4.0 | 10.0 | 0.00 | 0.00 | 0.00 | 71 | 1009.6 |
| 20260502052211 | 53 | 191 | 5.0 | 11.0 | 0.00 | 0.00 | 0.00 | 71 | 1009.5 |
| 20260502051710 | 53 | 199 | 6.0 | 12.0 | 0.00 | 0.00 | 0.00 | 70 | 1009.6 |
| 20260502051452 | 53 | 193 | 6.0 | 12.0 | 0.00 | 0.00 | 0.00 | 70 | 1009.6 |
| 20260502050953 | 53 | 227 | 5.0 | 11.0 | 0.00 | 0.00 | 0.00 | 70 | 1009.7 |
| 20260502050205 | 53 | 202 | 5.0 | 11.0 | 0.00 | 0.00 | 0.00 | 69 | 1009.6 |
| 20260502045951 | 53 | 204 | 5.0 | 11.0 | 0.00 | 0.00 | 0.00 | 68 | 1009.5 |
| 20260502045204 | 53 | 198 | 5.0 | 13.0 | 0.00 | 0.00 | 0.00 | 68 | 1009.4 |
| 20260502044703 | 53 | 207 | 6.0 | 13.0 | 0.00 | 0.00 | 0.00 | 68 | 1009.5 |
| 20260502044449 | 53 | 217 | 5.0 | 12.0 | 0.00 | 0.00 | 0.00 | 67 | 1009.4 |
| 20260502043702 | 54 | 217 | 5.0 | 10.0 | 0.00 | 0.00 | 0.00 | 67 | 1009.5 |
| 20260502043203 | 54 | 204 | 5.0 | 9.0 | 0.00 | 0.00 | 0.00 | 66 | 1009.4 |
| 20260502042947 | 54 | 205 | 4.0 | 9.0 | 0.00 | 0.00 | 0.00 | 66 | 1009.3 |
| 20260502042451 | 54 | 182 | 4.0 | 11.0 | 0.00 | 0.00 | 0.00 | 66 | 1009.4 |
| 20260502041952 | 54 | 168 | 4.0 | 11.0 | 0.00 | 0.00 | 0.00 | 65 | 1009.5 |
| 20260502041203 | 54 | 182 | 5.0 | 10.0 | 0.00 | 0.00 | 0.00 | 65 | 1009.6 |
| 20260502040703 | 54 | 197 | 5.0 | 10.0 | 0.00 | 0.00 | 0.00 | 65 | 1009.5 |
| 20260502040202 | 54 | 159 | 5.0 | 12.0 | 0.00 | 0.00 | 0.00 | 64 | 1009.5 |
| 20260502035946 | 54 | 217 | 6.0 | 15.0 | 0.00 | 0.00 | 0.00 | 64 | 1009.4 |
| 20260502035445 | 54 | 173 | 6.0 | 15.0 | 0.00 | 0.00 | 0.00 | 64 | 1009.4 |
| 20260502034702 | 54 | 173 | 6.0 | 13.0 | 0.00 | 0.00 | 0.00 | 64 | 1009.5 |
| 20260502034201 | 54 | 202 | 7.0 | 13.0 | 0.00 | 0.00 | 0.00 | 64 | 1009.6 |
| 20260502033703 | 54 | 211 | 7.0 | 13.0 | 0.00 | 0.00 | 0.00 | 63 | 1009.5 |
| 20260502033202 | 54 | 222 | 7.0 | 15.0 | 0.00 | 0.00 | 0.00 | 63 | 1009.5 |
| 20260502032701 | 54 | 221 | 7.0 | 15.0 | 0.00 | 0.00 | 0.00 | 63 | 1009.5 |
| 20260502032449 | 54 | 170 | 6.0 | 14.0 | 0.00 | 0.00 | 0.00 | 63 | 1009.4 |
| 20260502031700 | 54 | 189 | 5.0 | 12.0 | 0.00 | 0.00 | 0.00 | 63 | 1009.5 |
| 20260502031447 | 54 | 196 | 5.0 | 12.0 | 0.00 | 0.00 | 0.00 | 64 | 1009.6 |
| 20260502030702 | 55 | 192 | 6.0 | 12.0 | 0.00 | 0.00 | 0.00 | 64 | 1009.5 |
| 20260502030202 | 55 | 178 | 5.0 | 12.0 | 0.00 | 0.00 | 0.00 | 64 | 1009.5 |
| 20260502025702 | 55 | 182 | 5.0 | 12.0 | 0.00 | 0.00 | 0.00 | 64 | 1009.7 |
| 20260502025201 | 55 | 177 | 6.0 | 12.0 | 0.00 | 0.00 | 0.00 | 65 | 1009.8 |
| 20260502024702 | 55 | 221 | 6.0 | 14.0 | 0.00 | 0.00 | 0.00 | 65 | 1009.9 |
| 20260502024203 | 55 | 241 | 6.0 | 14.0 | 0.00 | 0.00 | 0.00 | 66 | 1009.9 |
| 20260502023701 | 55 | 203 | 7.0 | 14.0 | 0.00 | 0.00 | 0.00 | 66 | 1010.0 |
| 20260502023201 | 55 | 208 | 6.0 | 14.0 | 0.00 | 0.00 | 0.00 | 67 | 1010.0 |